GW7488 Weather Reports


time (UTC)temp
F
wind
direction
speed
knots
gust
knots
rain 1hr
in
rain 24hr
in
rain mn
in
humidity
%
barometer
mb
20260906122449 62 299 0.0 1.7 0.00 0.00 0.00 70 1013.6
20260906121949 62 269 0.0 0.9 0.00 0.00 0.00 70 1013.3
20260906120934 62 55 0.0 0.9 0.00 0.00 0.00 70 1013.4
20260906120434 62 147 0.0 1.7 0.00 0.00 0.00 70 1013.4
20260906115418 62 258 1.7 1.7 0.00 0.00 0.00 70 1013.0
20260906114403 63 252 0.0 1.7 0.00 0.00 0.00 68 1012.5
20260906113903 63 299 0.9 1.7 0.00 0.00 0.00 68 1012.8
20260906112848 64 339 1.7 2.6 0.00 0.00 0.00 68 1012.7
20260906112348 64 21 0.0 1.7 0.00 0.00 0.00 69 1012.5
20260906111848 64 82 0.9 0.9 0.00 0.00 0.00 68 1012.1
20260906111348 64 4 0.0 1.7 0.00 0.00 0.00 68 1011.8
20260906110847 64 35 1.7 2.6 0.00 0.00 0.00 68 1011.9
20260906105832 64 25 0.0 1.7 0.00 0.00 0.00 69 1011.7
20260906105332 64 69 1.7 3.5 0.00 0.00 0.00 69 1011.8
20260906104832 64 31 2.6 3.5 0.00 0.00 0.00 69 1011.7
20260906104332 64 68 0.0 2.6 0.00 0.00 0.00 69 1011.6
20260906103831 64 186 0.0 0.9 0.00 0.00 0.00 70 1011.3
20260906103331 64 261 0.9 1.7 0.00 0.00 0.00 69 1011.2
20260906102831 64 290 1.7 2.6 0.00 0.00 0.00 69 1011.4
20260906101816 64 259 0.9 2.6 0.00 0.00 0.00 67 1011.3
20260906101315 65 262 1.7 5.2 0.00 0.00 0.00 67 1011.2
20260906100815 65 263 2.6 3.5 0.00 0.00 0.00 68 1011.2
20260906095758 65 262 2.6 3.5 0.00 0.00 0.00 68 1011.1
20260906095258 65 291 1.7 3.5 0.00 0.00 0.00 67 1011.2
20260906094757 65 275 2.6 2.6 0.00 0.00 0.00 67 1011.4
20260906094257 65 259 0.9 1.7 0.00 0.00 0.00 66 1011.3
20260906093757 66 269 2.6 3.5 0.00 0.00 0.00 66 1011.0
20260906092742 66 60 0.0 0.9 0.00 0.00 0.00 65 1011.0
20260906092242 66 315 1.7 1.7 0.00 0.00 0.00 64 1011.0
20260906091741 66 212 0.0 0.9 0.00 0.00 0.00 64 1010.9
20260906091241 66 124 0.0 0.9 0.00 0.00 0.00 64 1010.7
20260906090741 66 321 0.0 0.9 0.00 0.00 0.00 64 1010.7
20260906090241 66 172 0.9 1.7 0.00 0.00 0.00 64 1010.4
20260906085740 66 109 1.7 2.6 0.00 0.00 0.00 63 1010.4
20260906085240 66 89 0.9 2.6 0.00 0.00 0.00 63 1010.5
20260906084740 66 25 0.9 0.9 0.00 0.00 0.00 63 1010.3
20260906084240 66 12 0.0 1.7 0.00 0.00 0.00 63 1010.2
20260906083740 66 256 0.0 1.7 0.00 0.00 0.00 63 1010.3
20260906083239 66 37 0.0 2.6 0.00 0.00 0.00 64 1010.3
20260906082224 65 25 1.7 2.6 0.00 0.00 0.00 65 1010.1
20260906081724 65 48 0.0 1.7 0.00 0.00 0.00 66 1010.2
20260906081224 65 352 2.6 2.6 0.00 0.00 0.00 66 1010.0
20260906080724 65 343 1.7 1.7 0.00 0.00 0.00 66 1009.9
20260906080224 66 332 0.9 3.5 0.00 0.00 0.00 65 1009.9
20260906075724 66 1 0.9 2.6 0.00 0.00 0.00 65 1010.1
20260906075224 66 5 1.7 5.2 0.00 0.00 0.00 65 1009.9
20260906073653 67 342 0.9 1.7 0.00 0.00 0.00 62 1009.7
20260906072638 67 0 3.5 4.3 0.00 0.00 0.00 62 1009.6
20260906072138 67 16 2.6 3.5 0.00 0.00 0.00 63 1009.4
20260906071638 67 0 1.7 2.6 0.00 0.00 0.00 63 1009.4
20260906071138 67 1 1.7 2.6 0.00 0.00 0.00 63 1009.5
20260906070122 66 13 3.5 4.3 0.00 0.00 0.00 63 1009.2
20260906065107 66 341 1.7 3.5 0.00 0.00 0.00 63 1009.2
20260906064606 66 37 0.0 2.6 0.00 0.00 0.00 64 1009.3
20260906064107 66 316 0.9 1.7 0.00 0.00 0.00 61 1009.2
20260906063606 67 55 0.0 0.9 0.00 0.00 0.00 60 1009.2
20260906063106 67 214 0.0 0.0 0.00 0.00 0.00 58 1008.9
20260906062606 67 212 0.0 0.9 0.00 0.00 0.00 58 1009.3
20260906062105 67 32 0.0 0.0 0.00 0.00 0.00 59 1008.6
20260906061605 67 322 0.0 0.0 0.00 0.00 0.00 58 1008.7
20260906060550 68 12 0.0 1.7 0.00 0.00 0.00 58 1008.7
20260906060050 68 253 0.0 0.0 0.00 0.00 0.00 57 1008.5
20260906055550 68 238 1.7 1.7 0.00 0.00 0.00 56 1008.4
20260906055050 69 55 0.0 0.0 0.00 0.00 0.00 55 1008.6
20260906054549 69 46 0.9 1.7 0.00 0.00 0.00 55 1008.2
20260906053534 69 129 0.0 0.9 0.00 0.00 0.00 54 1008.2
20260906053034 70 76 0.0 0.9 0.00 0.00 0.00 53 1008.1
20260906052018 70 264 0.0 0.9 0.00 0.00 0.00 52 1008.0
20260906051518 70 256 1.7 1.7 0.00 0.00 0.00 52 1008.0
20260906051018 71 238 0.0 0.9 0.00 0.00 0.00 51 1008.2
20260906050518 71 123 0.9 1.7 0.00 0.00 0.00 50 1008.1
20260906044948 71 129 0.0 0.9 0.00 0.00 0.00 50 1007.7
20260906044447 71 25 0.0 1.7 0.00 0.00 0.00 49 1007.8
20260906043947 71 44 0.0 0.0 0.00 0.00 0.00 50 1008.0
20260906043447 71 142 0.0 1.7 0.00 0.00 0.00 50 1007.9
20260906042946 72 246 0.0 1.7 0.00 0.00 0.00 50 1007.9
20260906042446 72 319 0.0 1.7 0.00 0.00 0.00 50 1007.9
20260906041946 72 264 0.0 1.7 0.00 0.00 0.00 51 1007.9
20260906040416 73 255 1.7 1.7 0.00 0.00 0.00 53 1007.7
20260906035916 73 242 0.0 0.9 0.00 0.00 0.00 53 1007.7
20260906035415 73 129 0.0 0.0 0.00 0.00 0.00 53 1007.9
20260906034915 74 293 0.0 1.7 0.00 0.00 0.00 51 1007.5
20260906034413 74 259 2.6 3.5 0.00 0.00 0.00 51 1007.6
20260906033913 75 298 1.7 1.7 0.00 0.00 0.00 52 1007.6
20260906033412 75 276 1.7 1.7 0.00 0.00 0.00 51 1007.7
20260906031842 76 126 0.0 0.9 0.00 0.00 0.00 51 1007.4
20260906031341 76 212 0.0 0.9 0.00 0.00 0.00 50 1007.4
20260906030841 76 164 0.0 1.7 0.00 0.00 0.00 50 1007.5
20260906030340 76 93 0.9 1.7 0.00 0.00 0.00 50 1007.2
20260906025840 76 96 1.7 2.6 0.00 0.00 0.00 50 1007.1
20260906025339 77 179 1.7 4.3 0.00 0.00 0.00 49 1007.0
20260906024839 77 167 0.0 1.7 0.00 0.00 0.00 49 1007.2
20260906023823 77 125 2.6 8.7 0.00 0.00 0.00 48 1007.0
20260906023323 78 112 3.5 7.0 0.00 0.00 0.00 48 1006.8
20260906021752 79 93 2.6 7.0 0.00 0.00 0.00 46 1006.7
20260906021252 79 71 6.1 11.3 0.00 0.00 0.00 46 1006.8
20260906020751 79 79 5.2 9.6 0.00 0.00 0.00 44 1006.7
20260906020250 78 107 6.1 7.0 0.00 0.00 0.00 37 1006.4
20260906015750 78 40 1.7 1.7 0.00 0.00 0.00 36 1006.1
20260906014735 79 311 0.0 1.7 0.00 0.00 0.00 35 1006.6
20260906014234 80 151 0.0 1.7 0.00 0.00 0.00 34 1006.2
20260906013733 80 142 0.0 0.9 0.00 0.00 0.00 33 1006.2
20260906012718 81 35 0.9 2.6 0.00 0.00 0.00 33 1006.4
20260906012217 81 243 1.7 3.5 0.00 0.00 0.00 33 1006.6
20260906011717 82 291 1.7 1.7 0.00 0.00 0.00 31 1006.4
20260906011216 82 14 0.9 1.7 0.00 0.00 0.00 30 1006.2
20260906010200 83 250 0.0 2.6 0.00 0.00 0.00 29 1006.6
20260906005659 85 271 1.7 2.6 0.00 0.00 0.00 28 1006.6
20260906005159 86 269 0.0 1.7 0.00 0.00 0.00 27 1006.8
20260906004659 86 245 0.9 1.7 0.00 0.00 0.00 27 1007.2
20260906003643 85 8 0.9 1.7 0.00 0.00 0.00 27 1006.9
20260906003142 85 0 1.7 2.6 0.00 0.00 0.00 27 1007.2
20260906002641 85 13 1.7 2.6 0.00 0.00 0.00 27 1007.2
20260906002141 86 338 0.9 2.6 0.00 0.00 0.00 27 1007.5
20260906001640 86 326 1.7 3.5 0.00 0.00 0.00 26 1007.3
20260906001140 86 20 1.7 2.6 0.00 0.00 0.00 26 1007.4
20260906000639 87 268 1.7 3.5 0.00 0.00 0.00 26 1007.5
20260906000138 87 344 1.7 3.5 0.00 0.00 0.00 26 1007.5
20260905235638 88 296 2.6 4.3 0.00 0.00 0.00 26 1007.5
20260905235137 89 290 3.5 3.5 0.00 0.00 0.00 25 1007.8
20260905234637 90 311 0.0 3.5 0.00 0.00 0.00 24 1007.6
20260905234137 89 296 0.9 4.3 0.00 0.00 0.00 24 1007.7
20260905233637 89 295 0.0 3.5 0.00 0.00 0.00 24 1007.5
20260905233137 89 2 1.7 5.2 0.00 0.00 0.00 24 1007.9
20260905232637 90 218 1.7 3.5 0.00 0.00 0.00 24 1007.9
20260905232136 89 320 0.0 3.5 0.00 0.00 0.00 25 1007.8
20260905231636 88 299 3.5 5.2 0.00 0.00 0.00 25 1008.1
20260905231136 88 293 3.5 5.2 0.00 0.00 0.00 25 1008.1
20260905230636 88 327 0.9 5.2 0.00 0.00 0.00 25 1008.3
20260905230136 88 349 3.5 4.3 0.00 0.00 0.00 24 1008.4
20260905225636 87 339 2.6 5.2 0.00 0.00 0.00 26 1008.4
20260905225136 86 346 4.3 4.3 0.00 0.00 0.00 26 1008.4
20260905224635 86 0 1.7 4.3 0.00 0.00 0.00 25 1008.6
20260905224135 86 304 1.7 2.6 0.00 0.00 0.00 27 1008.6
20260905223635 87 346 1.7 3.5 0.00 0.00 0.00 27 1009.0
20260905222620 87 334 4.3 6.1 0.00 0.00 0.00 26 1009.0
20260905220019 84 339 2.6 3.5 0.00 0.00 0.00 31 1009.7
20260905215519 84 355 1.7 5.2 0.00 0.00 0.00 31 1009.7
20260905215019 85 0 1.7 4.3 0.00 0.00 0.00 31 1009.7
20260905214519 84 324 3.5 7.0 0.00 0.00 0.00 31 1009.8
20260905212948 81 31 2.6 3.5 0.00 0.00 0.00 36 1010.0
20260905211933 82 6 1.7 6.1 0.00 0.00 0.00 35 1010.2
20260905211433 82 5 3.5 7.0 0.00 0.00 0.00 32 1010.1
20260905210933 82 4 4.3 8.7 0.00 0.00 0.00 31 1010.4
20260905210433 82 9 5.2 7.8 0.00 0.00 0.00 30 1010.2
20260905205933 83 324 3.5 6.1 0.00 0.00 0.00 31 1010.4
20260905205433 86 351 2.6 3.5 0.00 0.00 0.00 27 1010.7
20260905204933 87 259 0.9 3.5 0.00 0.00 0.00 24 1010.5
20260905204432 87 18 3.5 4.3 0.00 0.00 0.00 23 1010.6
20260905203932 88 32 5.2 13.0 0.00 0.00 0.00 23 1010.4
20260905203432 88 82 3.5 4.3 0.00 0.00 0.00 22 1010.6
20260905202932 88 41 1.7 6.1 0.00 0.00 0.00 23 1010.6
20260905201917 88 84 1.7 5.2 0.00 0.00 0.00 23 1010.7
20260905201417 88 95 4.3 7.8 0.00 0.00 0.00 23 1010.8
20260905200916 89 105 5.2 8.7 0.00 0.00 0.00 22 1010.8
20260905200416 89 35 3.5 7.8 0.00 0.00 0.00 23 1010.9
20260905195916 90 50 3.5 7.0 0.00 0.00 0.00 22 1011.1
20260905195416 91 41 3.5 7.0 0.00 0.00 0.00 23 1011.3
20260905194916 91 109 3.5 7.8 0.00 0.00 0.00 21 1011.0
20260905194416 92 168 5.2 7.0 0.00 0.00 0.00 21 1011.3
20260905193915 92 299 1.7 3.5 0.00 0.00 0.00 20 1011.5
20260905193415 92 80 3.5 7.8 0.00 0.00 0.00 22 1011.6
20260905192915 93 66 3.5 4.3 0.00 0.00 0.00 22 1011.7
20260905192415 90 21 2.6 4.3 0.00 0.00 0.00 22 1011.8
20260905191915 90 225 0.0 5.2 0.00 0.00 0.00 22 1012.0
20260905191413 90 78 2.6 5.2 0.00 0.00 0.00 22 1012.2
20260905190913 91 97 2.6 4.3 0.00 0.00 0.00 22 1012.1
20260905190413 90 18 1.7 4.3 0.00 0.00 0.00 22 1012.6
20260905185912 90 74 0.9 3.5 0.00 0.00 0.00 22 1012.3
20260905185412 90 23 1.7 2.6 0.00 0.00 0.00 22 1012.7
20260905184912 89 129 3.5 4.3 0.00 0.00 0.00 22 1012.8
20260905184412 89 31 2.6 4.3 0.00 0.00 0.00 23 1013.0
20260905183911 89 15 1.7 5.2 0.00 0.00 0.00 23 1013.1
20260905183411 90 10 4.3 6.1 0.00 0.00 0.00 21 1012.8
20260905182911 89 11 3.5 6.1 0.00 0.00 0.00 23 1013.2
20260905182411 89 7 7.8 7.8 0.00 0.00 0.00 22 1013.3
20260905181911 90 339 0.9 3.5 0.00 0.00 0.00 23 1013.5
20260905181411 89 287 0.9 4.3 0.00 0.00 0.00 22 1013.5
20260905180355 89 119 1.7 3.5 0.00 0.00 0.00 22 1013.8
20260905175855 89 341 2.6 2.6 0.00 0.00 0.00 23 1014.0
20260905174840 89 8 5.2 5.2 0.00 0.00 0.00 24 1014.1
20260905174339 89 16 0.9 4.3 0.00 0.00 0.00 23 1014.0
20260905173839 89 339 1.7 3.5 0.00 0.00 0.00 26 1014.1
20260905173339 88 113 0.9 2.6 0.00 0.00 0.00 24 1014.4
20260905172839 88 219 0.9 5.2 0.00 0.00 0.00 25 1014.4
20260905172339 88 135 1.7 2.6 0.00 0.00 0.00 25 1014.4
20260905171323 88 261 3.5 4.3 0.00 0.00 0.00 26 1014.8
20260905170823 87 348 0.9 1.7 0.00 0.00 0.00 29 1014.7
20260905170323 87 355 1.7 2.6 0.00 0.00 0.00 28 1014.8
20260905165823 85 173 0.0 1.7 0.00 0.00 0.00 30 1015.0
20260905165322 86 249 2.6 3.5 0.00 0.00 0.00 29 1015.4
20260905164822 85 324 2.6 2.6 0.00 0.00 0.00 31 1014.9
20260905164322 85 226 1.7 1.7 0.00 0.00 0.00 30 1015.0
20260905163822 85 274 0.9 1.7 0.00 0.00 0.00 29 1015.0
20260905163321 85 23 0.0 1.7 0.00 0.00 0.00 30 1015.1
20260905162821 86 50 1.7 2.6 0.00 0.00 0.00 30 1015.1
20260905161251 84 78 0.0 1.7 0.00 0.00 0.00 34 1015.4
20260905160236 82 26 1.7 2.6 0.00 0.00 0.00 36 1015.0
20260905155735 81 150 0.0 0.9 0.00 0.00 0.00 39 1015.3
20260905155235 80 218 0.0 2.6 0.00 0.00 0.00 39 1015.3
20260905154735 80 73 0.0 1.7 0.00 0.00 0.00 41 1015.4
20260905154235 78 20 1.7 1.7 0.00 0.00 0.00 43 1015.4
20260905153734 78 25 0.0 2.6 0.00 0.00 0.00 44 1015.4
20260905153234 78 320 0.9 1.7 0.00 0.00 0.00 42 1015.3
20260905152734 77 258 0.0 1.7 0.00 0.00 0.00 45 1015.3
20260905151718 76 252 0.9 1.7 0.00 0.00 0.00 45 1015.5
20260905151218 75 220 1.7 1.7 0.00 0.00 0.00 48 1015.5
20260905150718 74 277 0.9 1.7 0.00 0.00 0.00 52 1015.3
20260905150218 72 13 0.0 2.6 0.00 0.00 0.00 53 1015.6
20260905145717 72 262 1.7 1.7 0.00 0.00 0.00 56 1015.5
20260905145216 71 309 0.9 2.6 0.00 0.00 0.00 56 1015.6
20260905144716 70 337 0.0 1.7 0.00 0.00 0.00 59 1015.5
20260905144216 69 2 1.7 2.6 0.00 0.00 0.00 61 1015.4
20260905143714 67 291 0.9 3.5 0.00 0.00 0.00 63 1015.5
20260905143214 66 345 1.7 1.7 0.00 0.00 0.00 66 1015.3
20260905142713 64 312 0.9 2.6 0.00 0.00 0.00 69 1015.4
20260905142213 62 351 1.7 2.6 0.00 0.00 0.00 71 1015.2
20260905141713 61 323 1.7 1.7 0.00 0.00 0.00 73 1015.4
20260905141213 60 334 0.0 1.7 0.00 0.00 0.00 74 1015.2
20260905140713 60 347 0.0 0.9 0.00 0.00 0.00 74 1015.3
20260905135657 60 310 1.7 1.7 0.00 0.00 0.00 73 1014.9
20260905135157 60 276 0.9 1.7 0.00 0.00 0.00 72 1014.8
20260905134657 60 276 0.9 1.7 0.00 0.00 0.00 73 1014.5
20260905134156 60 301 0.0 1.7 0.00 0.00 0.00 73 1014.6
20260905133656 60 135 0.0 0.9 0.00 0.00 0.00 73 1014.5
20260905133156 60 224 0.0 0.9 0.00 0.00 0.00 74 1014.5
20260905132656 59 249 0.0 1.7 0.00 0.00 0.00 74 1014.2
20260905132156 59 288 0.9 0.9 0.00 0.00 0.00 74 1013.9
20260905131140 59 50 0.0 0.9 0.00 0.00 0.00 75 1014.0
20260905130640 59 261 0.0 0.9 0.00 0.00 0.00 75 1013.7
20260905130140 59 38 0.9 1.7 0.00 0.00 0.00 75 1013.5
20260905125640 59 37 1.7 1.7 0.00 0.00 0.00 75 1013.4
20260905125140 59 229 0.0 1.7 0.00 0.00 0.00 75 1013.2
20260905124640 58 323 0.9 1.7 0.00 0.00 0.00 76 1013.0
20260905124139 58 305 0.9 1.7 0.00 0.00 0.00 76 1013.1
20260905123639 58 106 1.7 1.7 0.00 0.00 0.00 75 1012.9